Location: Unspecified
(40.7945°N, 0.0000°E)
Time: 21:15:00
(UTC+00:00)

Explorer 7 - Pass Details

Date: 19 June 2021
Orbit: 484 x 676 km, 50.3° (Epoch: 28 July)

Event Time Altitude Azimuth Distance (km) Brightness Sun altitude
Rises 22:11:38 0° 263° (W) 3,021 10.9 -20.9°
Reaches altitude 10° 22:14:10 10° 272° (W) 2,104 10.1 -21.1°
Maximum altitude 22:18:42 37° 340° (NNW) 1,025 8.7 -21.5°
Drops below altitude 10° 22:23:08 10° 48° (NE) 2,052 9.9 -21.8°
Sets 22:25:34 0° 57° (ENE) 2,936 10.6 -22.0°
